RH
38 29 24 21 18 16 17 19 24 50 56 70 100 100 100 100 100 100 100 100 100 100 100 63 67 63 74 100 97 42 23 21 19 16 16 15 14 14 13 14 14 15 15 14 13 12 12 15 25
38 31 24 21 20 18 17 20 19 39 57 96 100 100 100 90 100 96 82 84 81 81 71 70 84 93 90 57 24 22 21 20 20 19 18 18 16 14 15 15 15 16 18 15 14 12 12 12 12
36 32 29 20 21 20 18 20 19 29 56 72 71 81 96 88 83 88 78 80 85 86 89 86 70 60 30 22 21 20 20 21 22 23 24 23 21 20 18 18 16 17 20 18 17 16 12 12 12
36 34 28 22 22 22 20 20 20 19 38 68 77 80 76 79 76 72 68 65 63 57 53 28 23 23 23 23 23 23 23 23 24 25 25 26 25 24 24 23 20 18 18 19 22 20 16 13 13
36 36 31 30 26 27 22 19 21 21 21 43 63 67 66 58 46 40 34 22 22 22 22 23 26 27 26 26 27 27 27 26 26 26 26 27 27 27 26 24 24 23 19 17 20 24 23 20 16
38 34 32 32 32 31 27 21 20 22 21 22 36 28 25 22 19 20 20 22 24 22 26 27 27 27 28 30 30 28 27 26 26 27 27 28 28 29 29 27 27 25 22 24 21 22 25 22 18
36 35 34 31 32 35 34 25 20 22 24 19 21 20 20 21 20 21 22 24 26 25 28 27 28 30 30 30 29 30 30 29 28 28 29 28 29 28 29 30 29 27 27 25 25 24 24 26 19
39 35 32 31 28 37 34 31 23 20 24 23 20 20 20 21 22 24 26 27 28 29 28 28 31 35 34 34 36 36 36 36 35 35 36 35 33 31 29 28 28 28 28 26 26 24 24 25 22
42 38 36 32 30 27 34 34 29 22 21 24 22 21 21 22 23 25 26 26 28 30 30 33 36 37 37 37 37 36 35 35 36 34 34 34 34 34 33 30 28 27 27 28 27 25 21 28 26
44 41 36 29 31 22 24 34 33 26 21 24 23 23 22 24 25 25 26 26 28 30 32 38 38 37 37 38 40 40 37 35 34 33 32 32 33 34 33 33 32 29 27 24 26 25 22 24 27
42 34 31 29 29 28 16 26 33 32 24 22 26 23 23 24 25 27 26 26 28 31 35 39 40 40 41 42 42 40 38 36 35 33 33 32 32 34 35 34 34 32 30 25 20 22 23 18 20
42 34 29 29 33 29 18 16 28 35 29 24 23 26 28 25 25 26 28 27 29 32 34 37 40 42 42 43 42 38 37 36 33 32 29 24 23 27 34 36 34 34 32 29 22 17 17 19 17
44 34 29 27 30 30 17 15 16 34 34 27 25 24 27 33 32 30 31 33 33 35 36 36 38 38 39 38 37 37 35 32 29 21 19 19 19 21 22 28 34 34 35 32 28 20 15 15 16
43 34 30 27 27 30 15 17 17 23 38 32 28 25 26 28 34 37 34 34 39 41 43 42 42 40 40 39 38 36 28 22 20 19 18 19 21 25 28 29 27 28 31 33 32 28 19 15 15
45 39 36 34 35 32 16 19 26 21 32 37 32 29 28 28 30 34 43 43 42 43 44 45 43 40 40 38 26 22 22 23 22 20 19 20 22 27 28 26 25 26 27 30 31 31 28 18 15
49 45 44 48 49 38 21 20 32 31 28 36 37 33 31 30 32 33 36 43 46 47 47 45 42 36 26 25 26 26 24 22 21 22 22 24 26 28 27 24 19 17 17 18 22 27 31 28 19
52 52 46 58 60 46 27 25 27 41 35 34 37 35 34 33 33 32 32 34 35 36 34 30 28 28 28 28 27 25 24 25 28 29 30 31 33 31 28 26 22 19 17 16 15 16 17 24 25
54 53 49 70 64 50 34 25 35 43 45 38 36 37 36 34 33 33 32 32 32 31 30 30 31 31 31 30 28 29 32 34 37 39 39 37 35 35 33 28 23 20 18 16 16 15 16 17 18
59 55 51 72 70 60 41 32 35 43 46 50 43 39 38 36 36 35 34 33 32 32 33 33 34 34 33 34 38 41 42 41 42 40 38 34 29 27 26 24 22 20 16 16 16 16 15 16 17
63 63 53 61 72 68 55 39 34 37 48 50 51 46 42 40 38 37 36 36 36 36 36 36 35 35 38 47 50 49 46 46 42 39 33 29 26 23 22 21 20 18 17 16 16 16 16 16 17
69 81 72 69 82 76 64 43 44 41 35 42 51 52 51 47 45 43 42 40 39 39 40 40 43 45 52 54 53 50 46 43 40 35 32 29 26 24 24 22 21 20 18 17 16 16 16 15 17
80 84 76 70 76 93 76 52 47 48 47 42 36 41 53 56 56 54 53 52 51 51 50 51 52 58 61 57 51 46 45 42 40 37 33 32 32 32 30 28 26 23 21 20 18 19 19 17 18
85 83 78 75 68 80 99 72 64 59 58 55 48 49 43 39 40 45 50 53 52 55 58 61 59 55 51 49 49 48 47 46 41 38 37 37 37 35 33 30 29 26 24 24 23 24 24 24 23
88 85 89 90 81 80 80 77 100 86 75 68 65 62 57 54 53 54 50 46 43 44 46 51 51 51 49 48 46 43 42 40 41 44 48 44 39 36 33 31 31 29 27 28 28 32 33 32 30
83 84 77 74 71 67 76 83 94 94 100 95 85 78 75 72 77 81 84 89 99 92 80 69 63 61 60 60 58 54 48 45 44 50 49 44 44 44 40 34 33 32 33 35 42 40 40 43 41
83 77 69 58 63 65 71 80 94 93 100 92 88 99 100 96 91 82 74 73 80 79 78 78 84 88 83 77 73 68 65 59 58 56 52 52 50 48 46 44 45 44 44 39 45 56 55 56 54
79 69 62 60 58 54 59 60 58 72 88 98 94 97 98 98 99 95 89 78 70 72 74 70 65 59 62 73 70 65 63 64 59 62 63 63 62 62 54 50 49 47 53 54 54 52 62 69 62
64 58 54 57 53 57 60 64 62 65 64 68 86 95 99 94 92 94 94 89 83 80 77 72 64 60 59 59 59 61 72 81 82 81 78 78 78 85 77 70 62 54 53 53 60 67 71 76 77
65 63 57 58 54 48 50 65 67 58 51 47 47 58 78 91 89 86 80 76 71 68 69 69 69 67 63 59 60 64 68 78 86 85 86 88 93 90 83 80 75 71 63 55 56 56 57 62 67
78 77 76 64 60 58 57 53 49 49 45 44 48 50 54 57 72 76 71 75 70 69 77 81 81 75 73 75 74 72 72 78 90 99 96 93 89 83 79 80 84 75 71 68 60 53 53 53 50
Wind_Speed
55 48 39 32 27 25 21 21 16 9 4 6 10 8 9 13 13 17 16 17 18 21 20 20 19 18 17 17 19 18 15 14 15 14 12 12 13 12 12 14 16 18 21 24 31 33 34 35 42
51 44 36 31 26 23 20 19 16 12 6 11 13 13 14 14 16 18 15 16 16 17 18 18 18 19 18 19 17 15 12 13 14 14 12 12 11 10 11 13 14 16 21 23 25 31 32 35 37
48 41 35 29 25 23 21 18 17 14 11 12 14 16 16 15 15 15 16 17 18 18 18 19 19 17 16 14 13 13 12 13 14 14 14 14 13 13 12 12 13 15 17 21 23 27 29 33 37
46 39 34 29 25 24 21 19 17 15 14 16 16 17 19 20 20 20 19 21 21 19 18 16 14 13 13 13 12 12 13 13 14 15 16 15 16 16 15 15 14 13 13 16 16 23 27 30 33
44 37 34 30 26 25 21 19 18 17 14 17 20 20 23 22 21 21 18 18 17 16 16 15 14 14 12 12 13 13 13 14 16 17 18 18 18 18 18 17 16 16 17 18 13 11 20 28 31
40 36 32 31 28 28 24 21 19 18 16 17 19 19 20 19 18 18 17 17 17 16 17 16 16 14 13 13 13 14 15 16 17 18 18 19 19 19 20 20 19 17 17 17 16 14 16 25 31
38 34 33 32 31 29 29 23 21 19 18 19 18 21 20 19 18 17 17 18 18 19 18 18 17 14 14 15 15 16 17 18 19 20 20 20 20 20 21 22 22 21 20 20 17 15 14 16 28
36 35 33 32 33 29 32 27 24 22 22 20 19 22 20 20 18 19 20 21 21 22 21 19 17 16 16 15 15 16 17 19 20 21 22 24 24 23 23 23 24 24 23 22 21 18 17 15 26
37 37 36 35 35 30 33 30 28 24 23 22 20 23 21 22 22 23 23 23 23 24 22 19 19 19 19 19 20 21 23 24 25 26 27 27 27 27 27 26 25 25 26 25 24 22 19 19 19
38 39 37 35 34 32 33 33 31 28 25 23 23 24 23 24 24 24 25 26 25 25 24 24 24 24 23 24 25 26 28 29 30 31 32 32 31 31 30 30 28 27 27 27 26 25 23 22 21
38 37 37 36 35 32 33 34 34 32 29 27 25 24 25 25 26 27 29 28 28 28 29 29 28 29 29 30 31 33 34 34 35 37 37 37 36 34 34 33 32 31 30 29 29 28 27 24 23
37 39 38 35 34 34 33 33 36 35 34 30 28 25 26 27 28 30 30 31 31 31 32 33 33 34 35 36 37 38 39 39 40 40 39 38 37 37 37 37 36 35 34 32 31 31 30 29 26
38 38 37 35 33 34 33 33 35 37 37 35 31 29 27 29 31 32 32 34 34 34 35 37 38 39 39 40 41 41 42 42 41 39 38 37 37 37 38 40 40 39 38 37 34 33 33 31 31
39 38 39 38 33 31 31 34 36 38 39 38 35 32 31 31 32 32 34 35 37 38 39 40 41 41 42 42 43 43 42 41 40 40 40 39 39 38 38 38 39 41 41 41 39 37 35 36 34
40 41 41 39 33 30 27 32 37 38 40 39 38 36 34 33 33 34 34 36 39 40 41 43 43 43 43 43 43 41 42 42 42 42 41 40 40 39 40 40 40 40 40 41 42 42 40 38 38
41 40 41 37 33 30 26 25 38 38 39 40 39 39 37 36 35 35 36 38 40 42 43 44 44 43 43 43 44 44 44 44 43 43 42 42 42 41 42 42 41 41 41 42 44 44 45 43 42
42 42 38 35 32 30 28 23 30 39 39 40 40 40 39 39 39 39 39 40 42 43 44 44 44 44 45 46 46 46 45 44 44 43 44 44 44 44 44 45 45 45 44 43 43 45 48 48 46
43 40 35 35 30 30 28 25 26 36 40 41 42 42 42 42 42 42 42 43 44 45 46 46 47 47 48 48 47 45 45 45 45 45 45 46 46 47 47 47 48 48 47 46 46 46 46 49 49
42 37 35 33 32 31 28 29 27 28 37 43 43 43 44 45 45 46 46 47 47 48 49 50 50 50 50 48 48 47 47 47 47 46 47 47 48 49 49 50 51 50 49 48 48 47 47 46 50
42 39 37 33 33 31 31 33 29 32 32 36 43 46 46 47 48 49 50 50 51 52 53 53 53 52 51 50 49 49 49 49 50 50 50 50 50 51 51 51 52 52 52 51 51 50 50 48 49
43 42 39 35 34 32 33 34 34 34 35 36 38 41 46 48 49 51 52 52 53 54 54 55 54 53 52 52 51 52 52 54 54 53 53 54 54 54 54 54 54 54 54 54 54 53 52 52 51
45 44 41 39 34 33 36 30 41 36 38 37 38 40 42 44 46 49 51 54 55 56 56 56 55 54 53 54 55 56 57 58 58 58 57 57 56 56 56 56 56 55 55 55 55 55 54 54 54
45 45 44 40 35 32 39 32 41 43 43 45 42 42 43 43 46 48 50 52 53 54 54 55 56 57 58 59 60 61 62 63 62 62 60 60 60 59 59 57 56 56 55 56 56 56 54 54 54
45 45 44 44 43 38 43 40 40 48 50 50 50 49 49 48 48 51 52 55 56 58 59 61 62 63 64 65 65 66 66 66 65 65 64 65 62 60 58 57 55 54 54 55 56 56 56 56 56
49 50 49 47 49 46 47 46 47 50 52 51 53 56 55 52 52 53 54 55 58 60 61 63 65 67 67 68 68 69 70 69 69 67 66 61 56 55 54 53 53 53 52 53 56 57 57 57 57
54 55 56 52 52 51 50 50 52 54 56 57 57 58 61 62 61 62 63 64 65 65 65 64 65 65 66 67 67 67 68 69 68 67 62 59 59 60 58 57 56 55 54 55 56 58 59 59 59
58 60 62 63 61 59 58 60 59 58 59 61 62 64 66 68 69 70 71 71 72 72 72 72 72 71 69 71 72 72 70 68 65 64 64 66 67 67 65 64 63 63 62 60 59 60 62 63 63
64 62 62 63 62 60 61 64 63 64 66 68 69 69 72 73 74 75 76 77 77 78 78 79 79 78 79 79 78 78 76 74 73 72 73 74 74 73 72 71 70 68 68 68 67 67 66 67 67
65 64 66 68 69 68 64 64 67 69 70 69 70 72 75 78 80 82 83 85 85 83 84 83 82 81 81 80 79 80 80 80 80 81 81 81 80 80 80 80 79 77 76 74 74 74 74 74 75
70 72 73 74 73 74 73 68 74 75 75 77 78 78 80 80 80 81 82 83 83 83 83 84 85 85 84 84 84 83 82 82 83 84 86 88 89 88 88 87 85 86 85 84 83 83 82 82 81
Wind_Direction
321 319 316 317 320 325 328 326 326 327 328 164 166 181 195 181 209 207 215 215 219 221 226 239 229 233 243 246 256 259 255 259 268 272 275 260 257 257 238 247 245 243 250 252 248 245 242 233 229
319 315 313 314 316 320 322 319 317 310 295 180 194 189 202 207 214 223 216 219 219 222 230 230 238 242 248 253 246 243 251 260 267 272 277 278 271 261 261 250 242 241 247 255 256 251 243 241 236
316 312 312 311 310 310 315 310 310 296 269 222 209 204 203 218 213 216 216 218 225 232 236 238 242 241 241 240 242 245 249 256 265 276 283 285 283 276 267 267 253 238 237 248 254 258 251 245 245
314 308 307 308 306 299 307 302 299 292 269 242 231 226 219 224 227 228 235 240 240 236 234 234 233 235 239 241 247 253 259 265 271 279 286 287 288 287 281 274 266 252 229 225 244 260 261 256 250
310 306 304 301 302 292 294 296 291 290 275 253 244 241 236 244 245 237 230 229 232 223 228 230 230 234 238 245 253 258 266 272 277 277 278 279 279 282 284 284 278 266 252 243 239 250 251 251 257
306 305 302 301 296 289 285 286 285 280 276 257 247 249 243 237 232 227 225 222 229 220 226 228 232 235 243 251 258 264 268 270 271 274 277 279 280 280 283 283 282 281 273 266 239 247 238 239 246
303 303 301 300 297 285 278 276 277 275 267 256 250 245 240 240 237 233 231 228 226 232 231 234 237 239 246 252 260 268 272 274 276 279 280 282 284 285 284 284 286 284 283 281 275 265 255 240 228
301 302 301 302 295 279 274 271 267 269 265 255 246 245 243 240 239 239 236 233 233 237 234 235 238 244 250 256 262 269 275 279 282 283 282 280 280 283 285 285 285 284 283 283 283 278 262 233 228
300 300 301 300 297 283 272 268 263 262 264 255 246 244 245 244 242 241 238 240 239 241 240 240 244 247 250 257 266 277 284 286 286 287 286 284 280 278 280 282 282 283 282 280 281 280 271 266 234
301 300 300 300 293 286 273 262 263 258 259 257 249 244 242 241 243 245 245 247 245 245 245 247 248 250 254 264 273 280 285 287 286 286 286 284 282 277 275 276 279 281 281 279 276 275 272 270 261
300 300 300 299 292 288 276 262 258 256 254 254 252 248 244 244 244 245 246 247 248 248 249 252 255 258 262 267 274 280 284 285 285 286 285 283 280 276 274 273 272 274 278 279 275 272 273 269 265
298 297 299 299 292 287 276 264 256 252 251 250 252 249 249 248 249 249 249 250 250 250 251 255 259 262 267 271 275 278 281 283 285 284 283 281 277 274 271 270 271 271 273 274 275 270 268 269 263
299 298 300 301 295 288 277 264 257 249 248 249 249 251 251 252 252 252 251 250 251 252 253 257 261 264 268 273 276 279 281 282 283 282 281 279 277 275 272 269 269 269 270 271 273 272 266 265 265
300 301 304 303 297 292 277 261 255 248 246 247 249 249 251 253 253 253 254 252 252 253 255 258 262 266 270 274 277 279 280 280 280 281 279 278 277 275 274 273 271 269 269 269 269 270 267 264 265
300 302 306 306 302 298 288 259 250 247 245 247 248 250 250 253 254 254 254 255 255 257 259 262 265 268 271 273 275 276 278 279 280 280 279 278 276 274 273 273 272 271 270 269 268 268 269 266 264
299 301 304 305 303 299 295 275 247 248 247 247 249 250 252 252 255 256 256 256 257 259 262 265 267 269 271 273 275 277 278 279 279 278 278 278 276 273 273 272 271 272 271 269 268 267 267 267 265
298 300 302 301 300 299 297 295 259 249 250 249 249 251 252 253 255 257 259 259 260 262 264 266 268 270 273 275 276 277 277 278 278 277 277 277 275 274 273 271 271 271 271 270 269 267 265 264 264
296 296 300 300 297 296 296 293 281 253 252 253 252 252 253 255 256 258 259 260 261 263 265 267 269 271 273 275 276 276 276 276 276 277 277 276 276 275 274 272 271 271 270 269 269 268 266 263 261
294 291 297 297 294 291 290 288 283 276 257 254 256 255 256 258 259 259 261 262 263 264 266 268 270 271 273 274 274 274 274 275 276 276 275 275 275 274 273 272 271 270 269 268 267 266 265 264 259
291 289 292 292 290 288 286 284 281 276 272 264 256 257 258 259 261 262 263 264 265 266 268 269 271 271 272 272 272 273 274 276 277 278 278 277 277 276 275 273 272 270 269 268 266 265 264 262 259
289 287 289 289 288 286 282 280 278 275 273 270 268 264 261 261 262 263 265 266 267 267 268 269 270 270 270 270 271 273 275 276 277 277 278 279 279 278 277 276 275 273 270 268 267 266 264 263 261
287 284 287 286 284 282 281 273 278 278 275 271 269 267 266 267 267 267 268 267 267 268 268 269 269 269 269 270 271 273 275 277 278 279 279 278 277 278 278 277 276 273 271 268 266 265 263 262 259
285 284 285 283 284 282 279 276 275 274 274 274 269 268 267 267 267 269 270 270 271 271 271 271 271 271 271 273 274 275 276 276 276 277 277 277 277 277 277 276 276 274 271 268 266 263 261 260 257
283 283 282 280 282 281 279 281 275 275 273 274 275 271 268 266 266 267 266 267 268 268 269 270 271 272 272 273 273 273 273 273 274 275 276 276 277 276 276 275 274 273 270 267 266 264 260 258 254
282 280 279 279 279 279 277 278 275 275 278 278 276 275 274 273 272 272 272 272 272 271 270 269 270 270 271 272 272 272 271 272 273 274 275 274 272 272 274 273 272 271 269 266 264 263 262 259 255
283 282 282 282 279 277 278 278 276 277 277 276 275 275 275 274 273 273 273 273 273 273 273 273 273 273 273 273 273 273 273 272 272 272 270 268 269 272 273 273 272 271 270 267 264 262 261 260 257
280 281 283 282 281 279 277 275 272 272 274 276 276 274 273 274 274 275 275 274 273 273 273 273 273 273 274 275 274 273 272 273 272 270 267 271 272 273 273 272 272 270 269 267 265 263 262 261 259
282 282 283 285 285 284 283 281 280 275 273 273 274 274 274 275 275 274 274 273 273 274 274 274 274 275 274 274 274 274 273 273 271 269 269 270 271 271 272 273 271 270 269 267 265 263 262 261 261
280 282 283 283 284 285 284 282 280 278 276 274 274 272 272 272 274 275 275 275 276 276 277 276 276 276 276 275 274 273 272 271 270 270 270 269 269 269 270 271 272 271 271 269 267 265 263 261 261
281 283 284 285 286 286 286 286 284 282 282 280 277 276 273 272 271 272 272 272 273 275 275 275 275 276 275 274 273 272 272 272 271 270 271 272 271 271 271 270 270 270 270 268 267 266 265 264 262